STARLINK-32519 (62317 NORAD) Tracking and Keplerian Element Data

This shows tracking and keplerian element data for the satellite.

Feedback or suggestion? Click here.




ElementValue
Catalog62317
NameSTARLINK-32519
Epoch Orbit826
Epoch Day34.84571176
Epoch Year2025
RAAN250.446
Inclination53.1571
Eccentricity0.0001507
Argument of Perigee25.3193
Mean Anonmoly334.7885
Mean Motion15.39598685
Decay Rate-0.00021881
L11 62317U 24239S 25034.84571176 -.00021881 00000+0 -53897-3 0 9998
L22 62317 53.1571 250.4460 0001507 25.3193 334.7885 15.39598685 8263



Live tracking and technical data element details for STARLINK-32519 (NORAD 62317). STARLINK-32519 can be tracked NOW for your location showing map with azimuth and elevation plus other details from your city location.







IsCatalogInMostPopularTable: catalog: 62317, numindb: 30
Update: records affected: 1



GetName: 62317 STARLINK-32519

Hit Count: updated at: Sun, 18 May 2025 23:53:38 GMT